White Plains, CT

11:32 AM EST on November 12, 2019 (GMT -0500)
Westchester County

Weather History for KHPN - September, 2019

Change the Weather History Date:

Monday, September 23, 2019

  Actual Average Record
Temperature  
Mean Temperature 78 °F -  
Max Temperature 88 °F 68 °F 86 °F (2016)
Min Temperature 68 °F 51 °F 38 °F (1974)
Cooling Degree Days 12    
Growing Degree Days 28 (Base 50)    
Moisture  
Dew Point 64 °F    
Average Humidity 67    
Maximum Humidity 90    
Minimum Humidity 46    
Precipitation  
Precipitation 0.13 in - - ()
Sea Level Pressure  
Sea Level Pressure 29.84 in    
Wind  
Wind Speed 4 mph ()    
Max Wind Speed 12 mph    
Max Gust Speed 17 mph    
Visibility 9.8 miles    
Events Rain    
Averages and records for this station are not official NWS values.
T = Trace of Precipitation, MM = Missing Value Source: Averaged Metar Reports

Daily Weather History Graph

Daily Weather History Graph

Search for Another Location

Airport or City:

Astronomy

Sep. 23, 2019 Rise Set
Actual Time 6:43 AM EDT 6:50 PM EDT
Civil Twilight 6:15 AM EDT 7:18 PM EDT
Nautical Twilight 5:43 AM EDT 7:50 PM EDT
Astronomical Twilight 5:10 AM EDT 8:22 PM EDT
Moon 12:20 AM EDT (9/23) 3:44 PM EDT (9/23)
Length of Visible Light 13h 02m
Length of Day
12h 07m
Waning Crescent, 33% of the Moon is Illuminated
Sep 23
Waning Crescent
Sep 28
New
Oct 5
First Quarter
Oct 13
Full
Oct 21
Last Quarter

Hourly Weather History & Observations

Time (EDT) Temp. Heat Index Dew Point Humidity Pressure Visibility Wind Dir Wind Speed Gust Speed Precip Events Conditions
12:56 AM 73.0 °F - 63.0 °F 71% 29.97 in 10.0 mi Calm Calm - N/A   Clear
1:56 AM 71.1 °F - 63.0 °F 75% 29.96 in 10.0 mi Variable 3.5 mph - N/A   Clear
2:56 AM 72.0 °F - 63.0 °F 73% 29.94 in 10.0 mi SW 3.5 mph - N/A   Clear
3:56 AM 71.1 °F - 64.0 °F 78% 29.93 in 10.0 mi Calm Calm - N/A   Clear
4:56 AM 70.0 °F - 64.0 °F 81% 29.91 in 10.0 mi Calm Calm - N/A   Clear
5:56 AM 69.1 °F - 64.0 °F 84% 29.91 in 10.0 mi Calm Calm - N/A   Clear
6:56 AM 68.0 °F - 64.9 °F 90% 29.91 in 10.0 mi South 3.5 mph - N/A   Clear
7:56 AM 71.1 °F - 66.0 °F 84% 29.91 in 10.0 mi Variable 3.5 mph - N/A   Scattered Clouds
9:56 AM 75.0 °F - 66.0 °F 73% 29.90 in 10.0 mi SW 5.8 mph - N/A   Partly Cloudy
10:56 AM 78.1 °F - 66.9 °F 68% 29.88 in 10.0 mi WSW 5.8 mph - N/A   Partly Cloudy
11:56 AM 81.0 °F 82.7 °F 64.9 °F 58% 29.86 in 10.0 mi Variable 4.6 mph - N/A   Clear
12:56 PM 84.9 °F 86.6 °F 64.9 °F 51% 29.83 in 10.0 mi SSW 9.2 mph - N/A   Clear
1:56 PM 86.0 °F 87.3 °F 64.0 °F 48% 29.80 in 10.0 mi South 10.4 mph - N/A   Partly Cloudy
2:56 PM 87.1 °F 88.3 °F 64.0 °F 46% 29.77 in 10.0 mi SSW 8.1 mph - N/A   Clear
4:56 PM 82.9 °F 84.6 °F 64.9 °F 54% 29.75 in 10.0 mi South 8.1 mph - N/A   Scattered Clouds
5:56 PM 81.0 °F 83.3 °F 66.9 °F 62% 29.73 in 10.0 mi South 9.2 mph - N/A   Clear
7:56 PM 77.0 °F - 66.9 °F 71% 29.73 in 10.0 mi South 4.6 mph - 0.00 in   Overcast
8:56 PM 80.1 °F 81.2 °F 62.1 °F 54% 29.73 in 10.0 mi West 6.9 mph - N/A   Overcast
9:56 PM 80.1 °F 80.9 °F 60.1 °F 50% 29.73 in 10.0 mi West 5.8 mph - N/A   Mostly Cloudy
10:56 PM 79.0 °F - 61.0 °F 54% 29.73 in 10.0 mi West 11.5 mph 17.3 mph 0.00 in Rain Light Rain
11:56 PM 71.1 °F - 66.9 °F 87% 29.73 in 6.0 mi West 9.2 mph - 0.13 in Rain Light Rain